Home   Weather   Liverpool   Past weeks

Flag for United Kingdom Past Weather in Liverpool, England, United Kingdom — Yesterday and Last 2 Weeks

41 °F


Feels Like: 37 °F
Forecast: 47 / 53 °F
Wind: 6 mph from North

Location: Liverpool Airport

Current Time: Oct 23, 2016 at 2:22:15 AM

Latest Report: Oct 23, 2016 at 1:50 AM

Visibility: 10 mi

Pressure: 30.01 "Hg

Humidity: 93%

Dew Point: 39 °F

Location of LiverpoolLocation

Past Weather in Liverpool — Graph


Liverpool Temperature Yesterday

Maximum temperature yesterday: 55 °F (at 3:50 PM)
Minimum temperature yesterday: 41 °F (at 3:20 AM)
Average temperature yesterday: 46 °F

High & Low Weather Summary for the Past Weeks

High61 °F (Oct 12, 1:50 PM)100% (Oct 10, 7:50 AM)30.45 "Hg (Oct 10, 7:50 AM)
Low41 °F (Oct 22, 3:20 AM)55% (Oct 10, 3:50 PM)29.62 "Hg (Oct 15, 5:20 AM)
Average51 °F82%30.09 "Hg
* Reported Oct 8 1:20 AM — Oct 23 1:20 AM, Liverpool, Weather by CustomWeather, © 2016

Note: Actual official high and low records may vary slightly from our data, if they occured in-between our weather recording intervals... More about our weather records


Liverpool Weather History for the Previous 24 Hours

Scroll right to see more
Time TempWeatherWind HumidityBarometerVisibility
1:20 AM
Sun, Oct 23
43 °FClear.5 mph87%30.01 "Hg10 mi
12:50 AM41 °FClear.2 mph93%30.01 "Hg10 mi
12:20 AM43 °FClear.2 mph87%30.01 "Hg10 mi
11:50 PM
Sat, Oct 22
43 °FClear.5 mph87%30.01 "Hg10 mi
11:20 PM43 °FClear.6 mph87%30.04 "Hg10 mi
10:50 PM45 °FClear.6 mph87%30.04 "Hg10 mi
10:20 PM45 °FClear.6 mph87%30.04 "Hg10 mi
9:50 PM45 °FClear.7 mph87%30.04 "Hg10 mi
9:20 PM45 °FClear.8 mph87%30.04 "Hg10 mi
8:50 PM46 °FClear.10 mph82%30.04 "Hg10 mi
8:20 PM48 °FClear.12 mph82%30.04 "Hg10 mi
7:50 PM48 °FClear.10 mph82%30.04 "Hg10 mi
7:20 PM50 °FClear.10 mph76%30.04 "Hg10 mi
6:50 PM50 °FPassing clouds.12 mph76%30.04 "HgN/A
6:20 PM52 °FPassing clouds.12 mph72%30.04 "HgN/A
5:50 PM52 °FScattered clouds.10 mph72%30.04 "HgN/A
5:20 PM52 °FBroken clouds.10 mph72%30.04 "HgN/A
4:50 PM54 °FScattered clouds.14 mph67%30.04 "HgN/A
4:20 PM55 °FPassing clouds.10 mph63%30.04 "HgN/A
3:50 PM55 °FPassing clouds.9 mph59%30.04 "HgN/A
3:20 PM54 °FPassing clouds.8 mph63%30.04 "HgN/A
2:50 PM54 °FPassing clouds.9 mph72%30.07 "HgN/A
12:20 PM52 °FPassing clouds.12 mph82%30.09 "HgN/A
11:50 AM52 °FPassing clouds.9 mph82%30.09 "HgN/A
11:20 AM50 °FPassing clouds.8 mph88%30.09 "HgN/A
10:50 AM50 °FPassing clouds.7 mph88%30.09 "HgN/A
10:20 AM50 °FPassing clouds.3 mph88%30.09 "Hg6 mi
9:50 AM46 °FOvercast.2 mph93%30.09 "Hg6 mi
9:20 AM45 °FLow clouds.2 mph100%30.09 "HgN/A
8:50 AM45 °FScattered clouds.No wind93%30.09 "HgN/A
8:20 AM43 °FScattered clouds.1 mph93%30.09 "HgN/A
7:50 AM43 °FPassing clouds.3 mph93%30.09 "HgN/A
7:20 AM41 °FClear.2 mph100%30.09 "Hg10 mi
6:50 AM41 °FClear.2 mph93%30.09 "Hg10 mi
6:20 AM41 °FClear.2 mph93%30.09 "Hg6 mi
5:50 AM41 °FClear.1 mph93%30.09 "Hg6 mi
5:20 AM43 °FClear.1 mph93%30.09 "Hg6 mi
4:50 AM41 °FClear.1 mph100%30.09 "Hg6 mi
4:20 AM41 °FClear.3 mph93%30.09 "Hg6 mi
3:50 AM43 °FClear.No wind93%30.09 "Hg6 mi
3:20 AM41 °FClear.2 mph100%30.09 "Hg5 mi
2:50 AM43 °FClear.3 mph93%30.12 "Hg5 mi
2:20 AM43 °FClear.2 mph93%30.12 "Hg5 mi
Weather by CustomWeather, © 2016

See weather overviewHow to use our weather pages